Regional Weather Roundup
Issued by NWS

Home | Current Version | Previous Version | Text Only | Print | Product List | Glossary Off
Versions: 1 2 3 4 5 6 7 8 9 10 11 12 13 14 15 16 17 18 19 20 21 22 23 24 25 26 27 28

000
ASUS45 KSLC 171310
RWRUT

UTAH REGIONAL WEATHER ROUNDUP
NATIONAL WEATHER SERVICE SALT LAKE CITY UT
700 AM MDT TUE OCT 17 2017

UTZ001>011-023>025-171400-

NORTHERN UTAH

CITY           SKY/WX    TMP DP  RH WIND       PRES   REMARKS
BRIGHAM CITY   CLEAR     32  25  74 CALM      30.31F
DUGWAY         PTCLDY    22  11  61 E6        30.31  WCI  15
HILL AFB       PTCLDY    40  12  31 E21       30.30S WCI  31
LOGAN          CLEAR     29  21  72 E3        30.32S
OGDEN          PTCLDY    39  16  39 S5        30.30S
SALT LAKE CITY PTCLDY    40  29  64 SE6       30.30S
TOOELE VALLEY  PTCLDY    32  21  64 S9        30.30F WCI  24
WENDOVER       CLOUDY    32  20  61 NE5       30.31S WCI  27
WEST JORDAN    PTCLDY    38  22  52 SW5       30.31S WCI  35

$$

UTZ011>015-024>027-171400-

CENTRAL/NORTHEAST UTAH

CITY           SKY/WX    TMP DP  RH WIND       PRES   REMARKS
PROVO AIRPORT  PTCLDY    32  24  72 CALM      30.34S
MOAB/CANYONLAN MOCLDY    35  12  38 CALM      30.34S
DELTA          MOCLDY    32  25  74 CALM      30.32S
PRICE          PTCLDY    34   6  31 N7        30.37S WCI  28
ROOSEVELT      CLOUDY    28  19  69 CALM      30.39S
VERNAL         CLOUDY    30  17  58 W5        30.38R WCI  25

$$

UTZ013>016-019>022-027-171400-

SOUTHERN UTAH

CITY           SKY/WX    TMP DP  RH WIND       PRES   REMARKS
BRYCE CANYON   PTCLDY    27  -1  30 NW3       30.44F
CEDAR CITY     PTCLDY    33  10  38 SE3       30.31F
MILFORD        MOCLDY    24   9  52 SW6       30.32S WCI  17
ST GEORGE      SUNNY     50  10  20 CALM      30.24R
HANKSVILLE     MOCLDY    28  12  50 MISG      30.38S
BLANDING         N/A     35   8  32 CALM      30.44S

$$

REGIONAL REPORTS     COLORADO/ARIZONA

CITY           SKY/WX    TMP DP  RH WIND       PRES   REMARKS
CRAIG, CO      CLOUDY    19  13  77 W3        30.41S
GRAND JUNCTION CLOUDY    35  13  40 E5        30.38R WCI  31
RIFLE, CO      CLOUDY    27  15  61 CALM      30.43R
MONTROSE, CO   CLOUDY    31  16  54 S9        30.43R WCI  23
CORTEZ, CO     CLOUDY    24  15  68 CALM      30.40R
COLORADO CITY    N/A     36  12  38 SE5       30.32S WCI  32
PAGE, AZ       PTCLDY    44  15  31 W3        30.31R
GRAND CANYON   PTCLDY    30  13  49 E3        30.39S HAZE
KINGMAN, AZ    CLEAR     48  16  27 CALM      30.18S
FLAGSTAFF, AZ  PTCLDY    31  21  66 CALM      30.40S

$$

REGIONAL REPORTS    NEVADA/IDAHO/WYOMING

CITY           SKY/WX    TMP DP  RH WIND       PRES   REMARKS
LAS VEGAS, NV  CLEAR     58  10  15 SW6       30.13S
ELY, NY        MOCLDY    29   0  28 S14       30.34F WCI  18
ELKO, NV       CLOUDY    31  15  52 NE3       30.29F
POCATELLO, ID  CLOUDY    28  24  85 CALM      30.29S
BURLEY, ID     CLEAR     30  24  78 N3        30.24F
FORT BRIDGER,    N/A     40   5  22 SW10      30.40F WCI  34
EVANSTON, WY   CLOUDY    38   6  26 S8        30.38F WCI  32
ROCK SPRINGS,  CLOUDY    38   3  23 W12       30.36S WCI  30
KEMMERER, WY   CLOUDY    32  12  43 NW8       30.38F WCI  25

$$




USA.gov is the U.S. government's official web portal to all federal, state and local government web resources and services.